Location: Stara Lesna
(49.1528°N, 20.2911°E)
Time: 08:43:41
(UTC+02:00)

ATLAS 5 CENTAUR R/B - Pass Details

Date: 13 July 2020
Orbit: 275 x 14306 km, 60.7° (Epoch: 05 August)

Event Time Altitude Azimuth Distance (km) Brightness Sun altitude
Rises 02:07:30 0° 313° (NW) 2,211 5.2 -16.7°
Reaches altitude 10° 02:08:48 10° 314° (NW) 1,577 4.5 -16.6°
Maximum altitude 02:11:48 84° 43° (NE) 736 2.4 -16.5°
Drops below altitude 10° 02:20:58 10° 133° (SE) 4,629 6.3 -15.9°
Sets 02:27:44 0° 135° (SE) 7,422 7.3 -15.4°
